Change the Weather History Date:

Tuesday, August 20, 2013

  Actual Average (KEKN) Record (KEKN)
Temperature  
Mean Temperature 68 °F 69 °F  
Max Temperature 78 °F 80 °F 90 °F (1937)
Min Temperature 57 °F 58 °F 40 °F (1981)
Degree Days  
Heating Degree Days 0 1  
Month to date heating degree days 5  
Since 1 June heating degree days 72  
Since 1 July heating degree days 17  
Cooling Degree Days 2 5  
Month to date cooling degree days 100  
Year to date cooling degree days 381  
Since 1 June cooling degree days 358  
Growing Degree Days 18 (Base 50)    
Moisture  
Dew Point 62 °F    
Average Humidity 84    
Maximum Humidity 100    
Minimum Humidity 54    
Precipitation  
Precipitation 0.00 in 0.12 in 1.77 in (1924)
Month to date precipitation 2.58  
Year to date precipitation 31.55  
Snow  
Snow 0.00 in - - ()
Month to date snowfall  
Since 1 September snowfall  
Snow Depth -    
Sea Level Pressure  
Sea Level Pressure 30.21 in    
Wind  
Wind Speed 0 mph (NNE)    
Max Wind Speed 6 mph    
Max Gust Speed -    
Visibility 7 miles    
Events Fog    
T = Trace of Precipitation, MM = Missing Value Source: NWS Daily Summary

Daily Weather History Graph

Daily Weather History Graph

Search for Another Location

Airport or City:

Trip Planner

Search our weather history database for the weather conditions in past years. The results will help you decide how hot, cold, wet, or windy it might be!

Date:

Astronomy

Aug. 20, 2013 Rise Set
Actual Time 6:39 AM EDT 8:08 PM EDT
Civil Twilight 6:11 AM EDT 8:36 PM EDT
Nautical Twilight 5:37 AM EDT 9:10 PM EDT
Astronomical Twilight 5:01 AM EDT 9:46 PM EDT
Moon 7:39 PM EDT (8/20) 6:07 AM EDT (8/20)
Length of Visible Light 14h 25m
Length of Day
13h 29m
Full, 100% of the Moon is Illuminated
Aug 20
Full
Aug 20
Full
Aug 28
Last Quarter
Sep 5
New
Sep 12
First Quarter

Hourly Weather History & Observations

Time (EDT) Temp. Dew Point Humidity Pressure Visibility Wind Dir Wind Speed Gust Speed Precip Events Conditions
12:15 AM 62.6 °F 62.6 °F 100% 30.18 in 0.2 mi Calm Calm - N/A Fog Fog
12:35 AM 64.4 °F 64.4 °F 100% 30.18 in 1.5 mi Calm Calm - N/A   Clear
12:55 AM 62.6 °F 62.6 °F 100% 30.18 in 0.8 mi Calm Calm - N/A   Mist
1:15 AM 62.6 °F 62.6 °F 100% 30.18 in 1.0 mi Calm Calm - N/A   Clear
1:35 AM 62.6 °F 62.6 °F 100% 30.18 in 4.0 mi Calm Calm - N/A   Clear
1:55 AM 62.6 °F 62.6 °F 100% 30.18 in 4.0 mi Calm Calm - N/A   Clear
2:15 AM 62.6 °F 62.6 °F 100% 30.18 in 4.0 mi Calm Calm - N/A   Clear
2:35 AM 60.8 °F 60.8 °F 100% 30.18 in 3.0 mi Calm Calm - N/A   Clear
2:55 AM 60.8 °F 60.8 °F 100% 30.18 in 1.2 mi Calm Calm - N/A   Mostly Cloudy
3:15 AM 60.8 °F 60.8 °F 100% 30.18 in 0.5 mi Calm Calm - N/A Fog Fog
3:35 AM 60.8 °F 60.8 °F 100% 30.18 in 1.5 mi Calm Calm - N/A   Overcast
3:55 AM 60.8 °F 60.8 °F 100% 30.18 in 0.2 mi Calm Calm - N/A Fog Fog
4:15 AM 60.8 °F 60.8 °F 100% 30.18 in 0.5 mi Calm Calm - N/A Fog Fog
4:35 AM 60.8 °F 60.8 °F 100% 30.18 in 0.2 mi Calm Calm - N/A Fog Fog
4:55 AM 60.8 °F 60.8 °F 100% 30.18 in 0.5 mi Calm Calm - N/A Fog Fog
5:15 AM 59.0 °F 59.0 °F 100% 30.19 in 0.2 mi Calm Calm - N/A Fog Fog
5:35 AM 59.0 °F 59.0 °F 100% 30.19 in 0.5 mi Calm Calm - N/A Fog Fog
5:55 AM 59.0 °F 59.0 °F 100% 30.20 in 3.0 mi Calm Calm - N/A   Partly Cloudy
6:15 AM 57.2 °F 57.2 °F 100% 30.20 in 0.2 mi Calm Calm - N/A Fog Fog
6:35 AM 57.2 °F 57.2 °F 100% 30.21 in 1.0 mi Calm Calm - N/A   Clear
6:55 AM 57.2 °F 57.2 °F 100% 30.22 in 0.8 mi Calm Calm - N/A   Mist
7:15 AM 57.2 °F 57.2 °F 100% 30.22 in 0.8 mi Calm Calm - N/A   Mist
7:35 AM 57.2 °F 57.2 °F 100% 30.22 in 0.8 mi Calm Calm - N/A   Mist
7:55 AM 59.0 °F 59.0 °F 100% 30.23 in 1.2 mi Calm Calm - N/A   Clear
8:15 AM 60.8 °F 60.8 °F 100% 30.24 in 3.0 mi Calm Calm - N/A   Clear
8:35 AM 62.6 °F 62.6 °F 100% 30.24 in 5.0 mi Calm Calm - N/A   Clear
8:55 AM 62.6 °F 62.6 °F 100% 30.24 in 8.0 mi Calm Calm - N/A   Clear
9:15 AM 64.4 °F 64.4 °F 100% 30.25 in 10.0 mi Calm Calm - N/A   Clear
9:35 AM 64.4 °F - N/A% 30.25 in 10.0 mi Calm Calm - N/A   Clear
9:55 AM 68.0 °F 66.2 °F 94% 30.25 in 10.0 mi Calm Calm - N/A   Clear
10:15 AM 69.8 °F 64.4 °F 83% 30.25 in 10.0 mi Calm Calm - N/A   Clear
10:35 AM 71.6 °F 64.4 °F 78% 30.25 in 10.0 mi Calm Calm - N/A   Clear
10:55 AM 73.4 °F 64.4 °F 73% 30.26 in 10.0 mi Calm Calm - N/A   Clear
11:15 AM 73.4 °F 62.6 °F 69% 30.26 in 10.0 mi NE 3.5 mph - N/A   Partly Cloudy
11:35 AM 71.6 °F 62.6 °F 73% 30.27 in 10.0 mi Calm Calm - N/A   Partly Cloudy
11:55 AM 75.2 °F 64.4 °F 69% 30.26 in 10.0 mi North 3.5 mph - N/A   Partly Cloudy
12:15 PM 73.4 °F 60.8 °F 65% 30.26 in 10.0 mi North 3.5 mph - N/A   Scattered Clouds
12:35 PM 75.2 °F 62.6 °F 65% 30.25 in 10.0 mi North 4.6 mph - N/A   Scattered Clouds
12:55 PM 75.2 °F 62.6 °F 65% 30.26 in 10.0 mi Calm Calm - N/A   Partly Cloudy
1:15 PM 75.2 °F 62.6 °F 65% 30.25 in 10.0 mi Calm Calm - N/A   Partly Cloudy
1:35 PM 75.2 °F 62.6 °F 65% 30.24 in 10.0 mi Calm Calm - N/A   Scattered Clouds
1:55 PM 77.0 °F 60.8 °F 57% 30.24 in 10.0 mi Calm Calm - N/A   Scattered Clouds
2:15 PM 77.0 °F 59.0 °F 54% 30.24 in 10.0 mi Calm Calm - N/A   Clear
2:35 PM 78.8 °F 62.6 °F 57% 30.23 in 10.0 mi Calm Calm - N/A   Clear
2:55 PM 78.8 °F 60.8 °F 54% 30.22 in 10.0 mi Calm Calm - N/A   Partly Cloudy
3:15 PM 78.8 °F 60.8 °F 54% 30.22 in 10.0 mi Calm Calm - N/A   Clear
3:35 PM 78.8 °F 62.6 °F 57% 30.21 in 10.0 mi NE 4.6 mph - N/A   Clear
3:55 PM 78.8 °F 62.6 °F 57% 30.21 in 10.0 mi NNE 3.5 mph - N/A   Clear
4:15 PM 78.8 °F 62.6 °F 57% 30.20 in 10.0 mi Calm Calm - N/A   Clear
4:35 PM 78.8 °F 62.6 °F 57% 30.20 in 10.0 mi NNE 5.8 mph - N/A   Clear
4:55 PM 78.8 °F 62.6 °F 57% 30.19 in 10.0 mi Calm Calm - N/A   Clear
5:15 PM 78.8 °F 62.6 °F 57% 30.19 in 10.0 mi Calm Calm - N/A   Clear
5:35 PM 77.0 °F 62.6 °F 61% 30.19 in 10.0 mi NNE 4.6 mph - N/A   Clear
5:55 PM 77.0 °F 64.4 °F 65% 30.19 in 10.0 mi NNW 5.8 mph - N/A   Clear
6:15 PM 77.0 °F 64.4 °F 65% 30.19 in 10.0 mi Calm Calm - N/A   Clear
6:35 PM 75.2 °F 62.6 °F 65% 30.18 in 10.0 mi Calm Calm - N/A   Clear
6:55 PM 75.2 °F 62.6 °F 65% 30.18 in 10.0 mi Calm Calm - N/A   Clear
7:15 PM 73.4 °F 62.6 °F 69% 30.19 in 10.0 mi Calm Calm - N/A   Clear
7:35 PM 73.4 °F 64.4 °F 73% 30.19 in 10.0 mi Calm Calm - N/A   Clear
7:55 PM 71.6 °F 64.4 °F 78% 30.19 in 10.0 mi Calm Calm - N/A   Clear
8:15 PM 69.8 °F 64.4 °F 83% 30.20 in 10.0 mi Calm Calm - N/A   Clear
8:35 PM 69.8 °F 64.4 °F 83% 30.21 in 10.0 mi Calm Calm - N/A   Clear
8:55 PM 68.0 °F 66.2 °F 94% 30.21 in 10.0 mi Calm Calm - N/A   Clear
9:15 PM 66.2 °F 66.2 °F 100% 30.22 in 10.0 mi Calm Calm - N/A   Clear
9:35 PM 66.2 °F 66.2 °F 100% 30.22 in 10.0 mi Calm Calm - N/A   Clear
9:55 PM 66.2 °F 66.2 °F 100% 30.22 in 10.0 mi Calm Calm - N/A   Clear
10:15 PM 66.2 °F 66.2 °F 100% 30.23 in 9.0 mi Calm Calm - N/A   Clear
10:35 PM 64.4 °F 64.4 °F 100% 30.22 in 7.0 mi Calm Calm - N/A   Clear
10:55 PM 64.4 °F 64.4 °F 100% 30.22 in 6.0 mi Calm Calm - N/A   Clear
11:15 PM 64.4 °F 64.4 °F 100% 30.22 in 7.0 mi Calm Calm - N/A   Clear
11:35 PM 64.4 °F 64.4 °F 100% 30.23 in 5.0 mi Calm Calm - N/A   Clear
11:55 PM 64.4 °F 64.4 °F 100% 30.23 in 4.0 mi Calm Calm - N/A   Clear